Date String (YYYY-MM-DD hh:mm:ss) UTC,Instrument flags,absolute air pressure of the measurement (hPa),sample flow rate (lpm),inlet stack bypass flow (lpm),air temperature of the measurement (°C),ambient temperature measured by the external sensor (°C),aerosol sample conditioner tube jacket temperature (°C),OPC LED temperature (°C),internal box temperature (°C),relative humidity of the measurement (%),span deviation,mass concentration of particles derived from Lorenz-Mie calculation of OPC scattering (μg/m³),mass concentration of particles derived from Lorenz-Mie calculation of OPC scattering (μg/m³),mass concentration of particles derived from Lorenz-Mie calculation of OPC scattering (μg/m³)
DateTimeUTC,F1_M11,P_M11,Q1_M11,Q2_M11,T1_M11,T2_M11,T3_M11,T4_M11,T5_M11,U1_M11,ZSPAN_M11,X0_M11,X2_M11,X1_M11
2023-06-07 19:00:00,SystemResetWarning,0829.1,5.01,000.00,029.3,028.1,000.0,037.7,030.9,31.5,0000.0,0009.63,0004.37,0003.85
2023-06-07 19:01:00,SystemResetWarning,0829.1,4.98,000.00,029.3,027.6,000.0,037.7,031.0,30.5,0000.0,0010.27,0004.40,0003.87
2023-06-07 19:02:00,SystemResetWarning,0829.1,4.99,000.00,029.3,025.7,000.0,037.7,030.8,29.5,0000.0,0010.40,0004.39,0003.87
2023-06-07 19:03:00,SystemResetWarning,0829.1,5.01,000.00,029.3,024.6,000.0,037.6,030.8,30.1,0000.0,0010.12,0004.33,0003.87
2023-06-07 19:04:00,SystemResetWarning,0829.1,5.02,000.00,029.2,024.7,000.0,037.6,030.6,30.1,0000.0,0010.11,0004.35,0003.87
2023-06-07 19:05:00,SystemResetWarning,0829.1,5.00,000.00,029.1,025.1,000.0,037.6,030.5,29.9,0000.0,0010.13,0004.37,0003.86
2023-06-07 19:06:00,SystemResetWarning,0829.1,5.00,000.00,029.1,025.6,000.0,037.6,030.5,29.0,0000.0,0010.22,0004.38,0003.84
2023-06-07 19:07:00,SystemResetWarning,0829.1,5.00,000.00,029.1,026.0,000.0,037.6,030.6,29.7,0000.0,0010.13,0004.37,0003.83
2023-06-07 19:08:00,SystemResetWarning,0829.1,4.99,000.00,029.1,026.4,000.0,037.6,030.6,30.2,0000.0,0010.33,0004.38,0003.82
2023-06-07 19:09:00,SystemResetWarning,0829.1,5.00,000.00,029.1,026.8,000.0,037.6,030.6,29.1,0000.0,0010.99,0004.37,0003.81
2023-06-07 19:10:00,SystemResetWarning,0829.1,5.00,000.00,029.2,027.1,000.0,037.6,030.7,29.6,0000.0,0010.20,0004.35,0003.81
2023-06-07 19:11:00,SystemResetWarning,0829.1,4.99,000.00,029.2,027.4,000.0,037.6,030.7,30.4,0000.0,0009.39,0004.35,0003.80
2023-06-07 19:12:00,SystemResetWarning,0829.1,5.00,000.00,029.2,027.6,000.0,037.7,030.8,29.9,0000.0,0008.78,0004.32,0003.79
2023-06-07 19:13:00,SystemResetWarning,0829.1,5.00,000.00,029.3,027.7,000.0,037.7,030.8,30.0,0000.0,0008.59,0004.33,0003.79
2023-06-07 19:14:00,SystemResetWarning,0829.0,5.00,000.00,029.3,027.9,000.0,037.7,030.9,30.0,0000.0,0008.65,0004.39,0003.83
2023-06-07 19:15:00,SystemResetWarning,0829.0,5.00,000.00,029.3,027.2,000.0,037.7,031.0,29.3,0000.0,0008.68,0004.42,0003.85
2023-06-07 19:16:00,SystemResetWarning,0829.0,5.00,000.00,029.3,025.7,000.0,037.7,030.9,29.5,0000.0,0008.76,0004.44,0003.89
2023-06-07 19:17:00,SystemResetWarning,0828.9,5.01,000.00,029.3,025.5,000.0,037.6,030.9,29.6,0000.0,0008.85,0004.46,0003.92
2023-06-07 19:18:00,SystemResetWarning,0829.0,5.01,000.00,029.2,025.8,000.0,037.7,030.6,30.8,0000.0,0008.86,0004.49,0003.94
2023-06-07 19:19:00,SystemResetWarning,0828.9,5.00,000.00,029.2,026.1,000.0,037.7,030.6,31.3,0000.0,0009.34,0004.52,0003.97
2023-06-07 19:20:00,SystemResetWarning,0829.0,5.00,000.00,029.2,026.5,000.0,037.7,030.7,29.7,0000.0,0018.07,0004.74,0004.00
2023-06-07 19:21:00,SystemResetWarning,0828.9,5.01,000.00,029.2,026.9,000.0,037.7,030.7,29.4,0000.0,0018.05,0004.76,0004.03
2023-06-07 19:22:00,SystemResetWarning,0829.0,5.00,000.00,029.3,027.2,000.0,037.7,030.8,29.4,0000.0,0018.13,0004.77,0004.05
2023-06-07 19:23:00,SystemResetWarning,0829.0,4.99,000.00,029.3,027.4,000.0,037.7,030.8,29.0,0000.0,0018.14,0004.81,0004.06
2023-06-07 19:24:00,SystemResetWarning,0828.9,4.99,000.00,029.3,027.6,000.0,037.7,030.9,27.8,0000.0,0018.10,0004.80,0004.07
2023-06-07 19:25:00,SystemResetWarning,0828.9,5.00,000.00,029.4,027.2,000.0,037.7,031.0,27.7,0000.0,0018.29,0004.75,0004.03
2023-06-07 19:26:00,SystemResetWarning,0828.8,5.00,000.00,029.4,025.6,000.0,037.7,031.0,29.6,0000.0,0018.29,0004.71,0004.00
2023-06-07 19:27:00,SystemResetWarning,0828.8,5.01,000.00,029.3,025.3,000.0,037.7,030.9,30.6,0000.0,0018.26,0004.70,0004.02
2023-06-07 19:28:00,SystemResetWarning,0828.8,5.00,000.00,029.3,025.6,000.0,037.7,030.7,30.8,0000.0,0018.09,0004.71,0004.05
2023-06-07 19:29:00,SystemResetWarning,0828.8,5.00,000.00,029.2,026.0,000.0,037.7,030.6,30.9,0000.0,0018.50,0004.76,0004.10
2023-06-07 19:30:00,SystemResetWarning,0828.8,5.00,000.00,029.2,026.4,000.0,037.7,030.7,29.2,0000.0,0019.14,0004.77,0004.13
2023-06-07 19:31:00,SystemResetWarning,0828.7,5.01,000.00,029.2,026.7,000.0,037.7,030.7,28.7,0000.0,0010.28,0004.61,0004.13
2023-06-07 19:32:00,SystemResetWarning,0828.7,4.99,000.00,029.3,027.1,000.0,037.7,030.8,29.3,0000.0,0009.21,0004.57,0004.12
2023-06-07 19:33:00,SystemResetWarning,0828.7,5.00,000.00,029.3,027.4,000.0,037.7,030.9,29.3,0000.0,0010.25,0004.56,0004.12
2023-06-07 19:34:00,SystemResetWarning,0828.7,5.00,000.00,029.3,027.6,000.0,037.7,030.9,29.8,0000.0,0010.40,0004.57,0004.14
2023-06-07 19:35:00,SystemResetWarning,0828.8,5.01,000.00,029.3,027.8,000.0,037.8,030.9,29.6,0000.0,0010.44,0004.59,0004.16
2023-06-07 19:36:00,SystemResetWarning,0828.8,4.99,000.00,029.4,026.8,000.0,037.7,030.9,30.6,0000.0,0011.02,0004.66,0004.20
2023-06-07 19:37:00,SystemResetWarning,0828.8,5.01,000.00,029.3,025.0,000.0,037.7,030.8,31.4,0000.0,0010.93,0004.69,0004.25
2023-06-07 19:38:00,SystemResetWarning,0828.8,5.02,000.00,029.3,024.5,000.0,037.6,030.8,29.5,0000.0,0011.59,0004.70,0004.26
2023-06-07 19:39:00,SystemResetWarning,0828.7,5.00,000.00,029.2,024.7,000.0,037.6,030.5,30.2,0000.0,0011.52,0004.67,0004.24
2023-06-07 19:40:00,SystemResetWarning,0828.8,5.00,000.00,029.1,025.1,000.0,037.6,030.5,29.3,0000.0,0011.17,0004.62,0004.19
2023-06-07 19:41:00,SystemResetWarning,0828.8,5.00,000.00,029.1,025.6,000.0,037.6,030.6,28.7,0000.0,0010.65,0004.60,0004.15
2023-06-07 19:42:00,SystemResetWarning,0828.8,5.00,000.00,029.1,026.1,000.0,037.6,030.6,28.6,0000.0,0010.23,0004.55,0004.12
2023-06-07 19:43:00,SystemResetWarning,0828.8,5.01,000.00,029.1,026.5,000.0,037.6,030.7,28.9,0000.0,0010.26,0004.53,0004.11
2023-06-07 19:44:00,SystemResetWarning,0828.8,5.00,000.00,029.1,026.9,000.0,037.6,030.7,28.7,0000.0,0009.44,0004.52,0004.10
2023-06-07 19:45:00,SystemResetWarning,0828.8,4.99,000.00,029.2,027.2,000.0,037.7,030.8,28.6,0000.0,0008.84,0004.46,0004.05
2023-06-07 19:46:00,SystemResetWarning,0828.8,5.00,000.00,029.2,027.4,000.0,037.7,030.9,26.5,0000.0,0008.69,0004.37,0003.98
2023-06-07 19:47:00,SystemResetWarning,0828.8,5.00,000.00,029.2,027.6,000.0,037.7,030.9,25.1,0000.0,0007.88,0004.24,0003.88
2023-06-07 19:48:00,SystemResetWarning,0828.8,4.99,000.00,029.3,027.8,000.0,037.7,031.0,25.7,0000.0,0007.67,0004.16,0003.80
2023-06-07 19:49:00,SystemResetWarning,0828.8,4.98,000.00,029.3,027.4,000.0,037.7,031.0,25.7,0000.0,0006.87,0004.04,0003.69
2023-06-07 19:50:00,SystemResetWarning,0828.8,5.00,000.00,029.3,025.4,000.0,037.6,030.9,26.1,0000.0,0008.16,0003.99,0003.63
2023-06-07 19:51:00,SystemResetWarning,0828.8,5.00,000.00,029.3,024.5,000.0,037.6,030.8,27.9,0000.0,0008.77,0003.97,0003.61
2023-06-07 19:52:00,SystemResetWarning,0828.8,5.01,000.00,029.2,024.6,000.0,037.6,030.7,29.8,0000.0,0009.10,0003.96,0003.61
2023-06-07 19:53:00,SystemResetWarning,0828.8,5.01,000.00,029.1,025.0,000.0,037.6,030.6,29.0,0000.0,0009.50,0004.05,0003.66
2023-06-07 19:54:00,SystemResetWarning,0828.8,5.00,000.00,029.1,025.5,000.0,037.6,030.6,29.1,0000.0,0009.67,0004.13,0003.71
2023-06-07 19:55:00,SystemResetWarning,0828.8,5.00,000.00,029.1,026.0,000.0,037.6,030.7,28.8,0000.0,0009.86,0004.20,0003.74
2023-06-07 19:56:00,SystemResetWarning,0828.8,5.00,000.00,029.1,026.4,000.0,037.6,030.8,28.9,0000.0,0010.29,0004.31,0003.82
2023-06-07 19:57:00,SystemResetWarning,0828.8,5.00,000.00,029.1,026.8,000.0,037.6,030.8,28.8,0001.6,0010.79,0004.50,0003.93
2023-06-07 19:58:00,SystemResetWarning,0828.9,4.99,000.00,029.2,027.1,000.0,037.6,030.8,29.5,0000.9,0011.08,0004.66,0004.07
2023-06-07 19:59:00,SystemResetWarning,0828.8,5.00,000.00,029.2,027.4,000.0,037.6,030.9,28.6,0002.6,0011.24,0004.80,0004.22
